Flag for Ethiopia Weather past 2 weeks in Adama, Ethiopia

Now
68 °F

Scattered clouds.


Feels Like: 68 °F
Forecast: 51 / 83 °F
Wind: 12 mph from Southeast

Location: Addis Ababa Airport

Current Time: Sep 30, 2014 at 6:53:19 PM

Latest Report: Sep 30, 2014 at 6:00 PM


Visibility: N/A

Pressure: 30.24 "Hg

Humidity: 69%

Dew point: 57 °F

Location of AdamaLocation

Historic Weather in Adama — Graph

°F

Adama temperature yesterday

Maximum temperature yesterday: 72 °F (at 12:00 PM)
Minimum temperature yesterday: 54 °F (at 7:00 AM)
Average temperature yesterday: 63 °F

Past Weeks' High & Low Weather Summary

 TemperatureHumidityPressure
High73 °F (Sep 23, 2:00 PM)94% (Sep 25, 12:00 AM)30.42 "Hg (Sep 25, 12:00 AM)
Low54 °F (Sep 25, 6:00 AM)38% (Sep 28, 4:00 PM)30.24 "Hg (Sep 22, 4:00 PM)
Average62 °F73%30.32 "Hg
* Reported Sep 15 5:00 PM — Sep 30 5:00 PM, Adama, Weather by CustomWeather, © 2014

Note: Actual official high and low records may vary slightly from our data, if they occured in-between our weather recording intervals... More about our weather records

Advertising

Adama weather history for previous 24 hours

 ConditionsComfort  
Time TempWeatherWind HumidityBarometerVisibility
5:00 PM
Sep 30
73 °FScattered clouds.16 mph50%30.24 "HgN/A
4:00 PM73 °FScattered clouds.12 mph50%30.24 "HgN/A
3:00 PM73 °FScattered clouds.14 mph50%30.24 "HgN/A
2:00 PM72 °FPartly sunny.12 mph50%30.24 "HgN/A
1:00 PM72 °FPartly sunny.13 mph50%30.27 "HgN/A
12:00 PM70 °FPartly sunny.18 mph53%30.30 "HgN/A
11:00 AM66 °FPartly sunny.12 mph60%30.33 "HgN/A
10:00 AM64 °FPartly sunny.7 mph64%30.36 "HgN/A
9:00 AM63 °FMild.N/A68%30.36 "HgN/A
8:00 AM61 °FCool.N/A72%30.36 "HgN/A
6:00 AM59 °FPartly cloudy.2 mph72%30.30 "HgN/A
5:00 AM59 °FPassing clouds.5 mph72%30.30 "HgN/A
4:00 AM59 °FPassing clouds.7 mph77%30.30 "HgN/A
3:00 AM59 °FPassing clouds.9 mph77%30.30 "HgN/A
2:00 AM59 °FPassing clouds.5 mph77%30.30 "HgN/A
1:00 AM59 °FPassing clouds.2 mph77%30.33 "HgN/A
12:00 AM59 °FPassing clouds.5 mph77%30.36 "HgN/A
11:00 PM
Sep 29
61 °FPassing clouds.5 mph77%30.36 "HgN/A
10:00 PM61 °FPassing clouds.5 mph83%30.36 "HgN/A
9:00 PM64 °FPassing clouds.5 mph73%30.33 "HgN/A
8:00 PM64 °FPassing clouds.2 mph73%30.33 "HgN/A
7:00 PM66 °FPassing clouds.N/A68%30.30 "HgN/A
6:00 PM68 °FScattered clouds.9 mph78%30.30 "HgN/A
Weather by CustomWeather, © 2014

See weather overviewHow to use our weather pages